Tracking 30923 objects as of 1-Jul-2025
HD Live streaming from Space Station
objects crossing your sky now

STARLINK-33699

Track STARLINK-33699 now!
10-day predictions
STARLINK-33699 is classified as:


NORAD ID: 63328
Int'l Code: 2025-057X
Perigee: 463.7 km
Apogee: 464.8 km
Inclination: 43.0 °
Period: 93.7 minutes
Semi major axis: 6835 km
RCS: Unknown
Launch date: March 18, 2025
Source: United States (US)
Launch site: AIR FORCE EASTERN TEST RANGE (AFETR)
Your satellite tracking list
Your tracking list is empty




NASA's NSSDC Master Catalog

Two Line Element Set (TLE):
1 63328U 25057X   25181.83334491 -.01340433  00000-0 -40637-1 0  9994
2 63328  43.0008   5.5939 0000828 269.1288 221.4292 15.36285229 17085
Source of the keplerian elements: AFSPC